CZ-6A DEB, 55222

Orbit data source: Space-Track

CZ-6A DEB, 55222 is space debris in SSO originally from a launch on Fri, 11 Nov 2022 UTC launched from the Taiyaun Space Center, China (TSC). Debris objects in space refer to the collection of defunct objects orbiting the Earth. Examples of debris include non-operational satellites, rocket bodies, and fragments generated from explosions, collisions, or faulty payload assembly.

Loading next visibility...
Identifier
55222, 2022-151WP
Orbit
SSO
Country
Flag of CNCN / PRC
Related business
Manufacturer
SAST
Mission
Spacecraft
Bus & Motor
Unknown
Mass
Unknown
Launch date (UTC)
2022-11-11 (3 years ago)
Launch vehicle
Unknown
Launch site
Taiyaun Space Center, China (TSC)
Object type
Payload
Rocket body
Debris
Shape & HBR
Unknown shape, 0.1 m
Radar Cross Section
Small (<0.1 m²)

Expand to show TLE details & history
Last TLE update: 1 day ago

TLE from 1 day ago
0 CZ-6A DEB
1 55222U 22151WP  25349.41514497  .00009092  00000-0  15730-2 0  9993
2 55222  98.6414  39.5482 0075428 141.4743 219.1877 14.66720331157844
Epoch: 2025-12-15T09:57Z
TLE epoch observation values (Epoch: 2025-12-15T09:57:48.525Z)
Latitude
-0.00003°
Longitude
165.78198°
Altitude
715.92 km
Speed
7.476 km/s
True Right ascension
02h 38m 11s
True Declination
0° 00' 00"
Sunlit
Object was in full shadow at epoch
Visualization orbit readout
Latitude
Unknown
Longitude
Unknown
Altitude
Unknown
Speed
Unknown
Apparent Right ascension
Unknown
Apparent Declination
Unknown
Sunlit
N/A
Visualization observer readout
Local Sidereal Time
15:53:51
Azimuth
Unknown
Elevation
Unknown
Doppler factor
Unknown
Orbital elements
Apogee altitude
721.803 km
Perigee altitude
615.498 km
Semi-major axis
7,046.787 km
Eccentricity
0.00754
Inclination
98.6414°
RAAN
39.5482°
Arg. of periapsis
141.4743°
True anomaly
218.64553°
Mean anomaly
219.1877°
Eccentric anomaly
218.91622°
Mean motion
3.66907 °/min
Orbital period
98.12 mins
BSTAR
0.001573
Loading maneuver chart data...
Computing Atmospheric mass density...
Loading historical data...
Loading historical data...
Loading historical data...
Loading historical data...
Loading historical data...
Loading historical data...
Loading historical data...

Documentation

Showing up to 5 results
|